Time,TemperatureF,DewpointF,PressureIn,WindDirection,WindDirectionDegrees,WindSpeedMPH,WindSpeedGustMPH,Humidity,HourlyPrecipIn,Conditions,Clouds,dailyrainin,SoftwareType,DateUTC
2014-12-27 00:03:00,41.4,35.7,30.38,ESE,123,0.0,0.0,80,0.00,CLR,,0.00,WeatherDisplay:10.37,2014-12-27 05:03:00,
2014-12-27 00:08:00,41.5,35.8,30.37,ESE,122,0.0,0.0,80,0.00,CLR,,0.00,WeatherDisplay:10.37,2014-12-27 05:08:00,
2014-12-27 00:13:00,41.5,35.8,30.37,ESE,123,0.0,0.0,80,0.00,CLR,,0.00,WeatherDisplay:10.37,2014-12-27 05:13:00,
2014-12-27 00:18:00,41.1,35.7,30.37,ESE,123,0.0,0.0,81,0.00,CLR,,0.00,WeatherDisplay:10.37,2014-12-27 05:18:00,
2014-12-27 00:23:00,40.8,35.4,30.37,ESE,122,0.0,0.0,81,0.00,CLR,,0.00,WeatherDisplay:10.37,2014-12-27 05:23:00,
2014-12-27 00:28:00,40.0,35.3,30.37,ESE,122,0.0,0.0,83,0.00,CLR,,0.00,WeatherDisplay:10.37,2014-12-27 05:28:00,
2014-12-27 00:33:00,39.4,35.0,30.36,ESE,123,0.0,0.0,84,0.00,CLR,,0.00,WeatherDisplay:10.37,2014-12-27 05:33:00,
2014-12-27 00:38:00,38.9,34.8,30.36,ESE,123,0.0,0.0,85,0.00,CLR,,0.00,WeatherDisplay:10.37,2014-12-27 05:38:00,
2014-12-27 00:43:00,38.5,34.7,30.36,ESE,123,0.0,0.0,86,0.00,CLR,,0.00,WeatherDisplay:10.37,2014-12-27 05:43:00,
2014-12-27 00:48:00,38.4,34.9,30.36,ESE,123,0.0,0.0,87,0.00,CLR,,0.00,WeatherDisplay:10.37,2014-12-27 05:48:00,
2014-12-27 00:53:00,38.3,34.8,30.36,ESE,123,0.0,0.0,87,0.00,CLR,,0.00,WeatherDisplay:10.37,2014-12-27 05:53:00,
2014-12-27 00:58:00,38.4,34.9,30.36,ESE,123,0.0,0.0,87,0.00,CLR,,0.00,WeatherDisplay:10.37,2014-12-27 05:58:00,
2014-12-27 01:03:00,38.5,34.7,30.36,ESE,123,0.0,0.0,86,0.00,CLR,,0.00,WeatherDisplay:10.37,2014-12-27 06:03:00,
2014-12-27 01:08:00,38.2,34.4,30.36,ESE,123,0.0,0.0,86,0.00,CLR,,0.00,WeatherDisplay:10.37,2014-12-27 06:08:00,
2014-12-27 01:13:00,38.1,34.9,30.37,ESE,123,0.0,0.0,88,0.00,CLR,,0.00,WeatherDisplay:10.37,2014-12-27 06:13:00,
2014-12-27 01:18:00,38.1,34.6,30.36,ESE,123,0.0,0.0,87,0.00,CLR,,0.00,WeatherDisplay:10.37,2014-12-27 06:18:00,
2014-12-27 01:23:00,37.8,34.6,30.36,ESE,123,0.0,0.0,88,0.00,CLR,,0.00,WeatherDisplay:10.37,2014-12-27 06:23:00,
2014-12-27 01:28:00,37.6,34.4,30.36,ESE,123,0.0,0.0,88,0.00,CLR,,0.00,WeatherDisplay:10.37,2014-12-27 06:28:00,
2014-12-27 01:33:00,37.7,34.8,30.37,ESE,123,0.0,0.0,89,0.00,CLR,,0.00,WeatherDisplay:10.37,2014-12-27 06:33:00,
2014-12-27 01:38:00,37.7,34.5,30.37,ESE,123,0.0,0.0,88,0.00,CLR,,0.00,WeatherDisplay:10.37,2014-12-27 06:38:00,
2014-12-27 01:43:00,37.9,34.9,30.37,ESE,123,0.0,0.0,89,0.00,CLR,,0.00,WeatherDisplay:10.37,2014-12-27 06:43:00,
2014-12-27 01:48:00,38.5,35.0,30.37,ESE,123,0.0,0.0,87,0.00,CLR,,0.00,WeatherDisplay:10.37,2014-12-27 06:48:00,
2014-12-27 01:53:00,38.4,34.9,30.37,ESE,123,0.0,0.0,87,0.00,CLR,,0.00,WeatherDisplay:10.37,2014-12-27 06:53:00,
2014-12-27 01:58:00,38.3,34.8,30.37,ESE,123,0.0,0.0,87,0.00,CLR,,0.00,WeatherDisplay:10.37,2014-12-27 06:58:00,
2014-12-27 02:03:00,38.4,34.9,30.37,ESE,123,0.0,0.0,87,0.00,CLR,,0.00,WeatherDisplay:10.37,2014-12-27 07:03:00,
2014-12-27 02:08:00,38.4,34.9,30.37,ESE,123,0.0,0.0,87,0.00,CLR,,0.00,WeatherDisplay:10.37,2014-12-27 07:08:00,
2014-12-27 02:13:00,38.9,35.1,30.37,ESE,123,0.0,0.0,86,0.00,CLR,,0.00,WeatherDisplay:10.37,2014-12-27 07:13:00,
2014-12-27 02:18:00,39.1,35.0,30.37,ESE,123,0.0,0.0,85,0.00,CLR,,0.00,WeatherDisplay:10.37,2014-12-27 07:18:00,
2014-12-27 02:23:00,38.8,34.7,30.37,ESE,123,0.0,0.0,85,0.00,CLR,,0.00,WeatherDisplay:10.37,2014-12-27 07:23:00,
2014-12-27 02:28:00,38.4,34.3,30.37,ESE,123,0.0,0.0,85,0.00,CLR,,0.00,WeatherDisplay:10.37,2014-12-27 07:28:00,
2014-12-27 02:33:00,37.9,34.4,30.37,ESE,123,0.0,0.0,87,0.00,CLR,,0.00,WeatherDisplay:10.37,2014-12-27 07:33:00,
2014-12-27 02:38:00,37.4,33.6,30.37,ESE,123,0.0,0.0,86,0.00,CLR,,0.00,WeatherDisplay:10.37,2014-12-27 07:38:00,
2014-12-27 02:43:00,37.4,34.5,30.37,ESE,123,0.0,0.0,89,0.00,CLR,,0.00,WeatherDisplay:10.37,2014-12-27 07:43:00,
2014-12-27 02:48:00,38.3,34.8,30.38,ESE,123,0.0,0.0,87,0.00,CLR,,0.00,WeatherDisplay:10.37,2014-12-27 07:48:00,
2014-12-27 02:53:00,38.7,34.9,30.37,ESE,123,0.0,0.0,86,0.00,CLR,,0.00,WeatherDisplay:10.37,2014-12-27 07:53:00,
2014-12-27 02:58:00,38.2,34.1,30.36,ESE,123,0.0,0.0,85,0.00,CLR,,0.00,WeatherDisplay:10.37,2014-12-27 07:58:00,